When you browse on this site, cookies collect data to enhance your experience and personalize the content and advertising you see.
Visit our Privacy Policy to learn more. By continuing to use the site, you agree to this use of cookies and data.
  • en Belgique
  • Liste des pays
  • À 7 jours
  • Température de l'eau
  • Carte satellitaire
  • Carte météo
  • Widgets météo
  • user-avatar
    Se connecter

    Météo par heure à Vyazovaya Dubrava

    Ce jour, 22 Avril, Lundi

    Heure Température Précipitation Vent Pression Humidité
    00:00 +8°C° 0 mm 0 m/s 751 mmHg 41%
    01:00 +9°C° 0 mm 1 m/s 751 mmHg 42%
    02:00 +9°C° 0 mm 1 m/s 751 mmHg 43%
    03:00 +8°C° 0 mm 1 m/s 751 mmHg 43%
    04:00 +8°C° 0 mm 1 m/s 751 mmHg 44%
    05:00 +8°C° 0 mm 1 m/s 751 mmHg 46%
    06:00 +7°C° 0 mm 1 m/s 751 mmHg 47%
    07:00 +9°C° 0 mm 1 m/s 752 mmHg 44%
    08:00 +10°C° 0 mm 2 m/s 752 mmHg 41%
    09:00 +14°C° 0 mm 2 m/s 752 mmHg 37%
    10:00 +15°C° 0 mm 2 m/s 752 mmHg 34%
    11:00 +16°C° 0 mm 2 m/s 752 mmHg 30%
    12:00 +17°C° 0 mm 3 m/s 752 mmHg 27%
    13:00 +17°C° 0 mm 3 m/s 752 mmHg 28%
    14:00 +17°C° 0 mm 3 m/s 752 mmHg 28%
    15:00 +17°C° 0 mm 3 m/s 752 mmHg 29%
    16:00 +17°C° 0 mm 2 m/s 752 mmHg 31%
    17:00 +17°C° 0 mm 2 m/s 752 mmHg 32%
    18:00 +17°C° 0 mm 2 m/s 752 mmHg 34%
    19:00 +16°C° 0 mm 2 m/s 752 mmHg 37%
    20:00 +14°C° 0 mm 2 m/s 752 mmHg 39%
    21:00 +13°C° 0 mm 1 m/s 752 mmHg 42%
    22:00 +13°C° 0 mm 2 m/s 752 mmHg 45%
    23:00 +12°C° 0 mm 2 m/s 753 mmHg 47%

    Demain, 23 Avril, Mardi

    Heure Température Précipitation Vent Pression Humidité
    00:00 +10°C° 0 mm 2 m/s 753 mmHg 50%
    01:00 +11°C° 0 mm 1 m/s 753 mmHg 51%
    02:00 +11°C° 0 mm 1 m/s 753 mmHg 51%
    03:00 +11°C° 0 mm 1 m/s 753 mmHg 52%
    04:00 +11°C° 0 mm 1 m/s 753 mmHg 53%
    05:00 +11°C° 0 mm 1 m/s 753 mmHg 54%
    06:00 +11°C° 0 mm 1 m/s 753 mmHg 55%
    07:00 +12°C° 0 mm 1 m/s 753 mmHg 52%
    08:00 +13°C° 0 mm 1 m/s 754 mmHg 49%
    09:00 +14°C° 0 mm 1 m/s 754 mmHg 46%
    10:00 +15°C° 0 mm 2 m/s 754 mmHg 42%
    11:00 +16°C° 0 mm 2 m/s 754 mmHg 38%
    12:00 +17°C° 0 mm 2 m/s 754 mmHg 34%
    13:00 +17°C° 0 mm 3 m/s 754 mmHg 34%
    14:00 +17°C° 0 mm 3 m/s 753 mmHg 34%
    15:00 +17°C° 0 mm 3 m/s 753 mmHg 34%
    16:00 +17°C° 0 mm 3 m/s 753 mmHg 36%
    17:00 +17°C° 0 mm 3 m/s 753 mmHg 38%
    18:00 +17°C° 0 mm 3 m/s 752 mmHg 39%
    19:00 +14°C° 0 mm 3 m/s 753 mmHg 43%
    20:00 +13°C° 0 mm 3 m/s 753 mmHg 47%
    21:00 +12°C° 0 mm 3 m/s 753 mmHg 51%
    22:00 +12°C° 0 mm 3 m/s 753 mmHg 52%
    23:00 +12°C° 0 mm 3 m/s 753 mmHg 54%

    Après-demain, 24 Avril, Mercredi

    Heure Température Précipitation Vent Pression Humidité
    00:00 +12°C° 0 mm 3 m/s 753 mmHg 55%
    01:00 +11°C° 0 mm 3 m/s 753 mmHg 56%
    02:00 +11°C° 0 mm 3 m/s 753 mmHg 58%
    03:00 +11°C° 0 mm 3 m/s 753 mmHg 60%
    04:00 +11°C° 0 mm 3 m/s 753 mmHg 61%
    05:00 +11°C° 0 mm 3 m/s 753 mmHg 63%
    06:00 +10°C° 0 mm 3 m/s 753 mmHg 65%
    07:00 +12°C° 0 mm 3 m/s 753 mmHg 61%
    08:00 +13°C° 0 mm 3 m/s 753 mmHg 57%
    09:00 +15°C° 0 mm 4 m/s 753 mmHg 53%
    10:00 +17°C° 0 mm 4 m/s 753 mmHg 48%
    11:00 +18°C° 0 mm 4 m/s 753 mmHg 44%
    12:00 +20°C° 0 mm 4 m/s 753 mmHg 40%
    13:00 +20°C° 0 mm 4 m/s 753 mmHg 39%
    14:00 +21°C° 0 mm 4 m/s 752 mmHg 38%
    15:00 +21°C° 0 mm 4 m/s 752 mmHg 38%
    16:00 +21°C° 0 mm 4 m/s 752 mmHg 40%
    17:00 +20°C° 0 mm 3 m/s 752 mmHg 42%
    18:00 +20°C° 0 mm 3 m/s 752 mmHg 44%
    19:00 +19°C° 0 mm 3 m/s 752 mmHg 48%
    20:00 +17°C° 0 mm 3 m/s 752 mmHg 51%
    21:00 +16°C° 0 mm 2 m/s 752 mmHg 55%
    22:00 +15°C° 0 mm 2 m/s 752 mmHg 57%
    23:00 +14°C° 0 mm 2 m/s 752 mmHg 58%

    25 Avril, Jeudi

    Heure Température Précipitation Vent Pression Humidité
    00:00 +14°C° 0 mm 2 m/s 752 mmHg 60%
    01:00 +13°C° 0 mm 2 m/s 752 mmHg 61%
    02:00 +13°C° 0 mm 2 m/s 752 mmHg 63%
    03:00 +12°C° 0 mm 2 m/s 752 mmHg 64%
    04:00 +12°C° 0 mm 2 m/s 752 mmHg 66%
    05:00 +12°C° 0 mm 2 m/s 752 mmHg 67%
    06:00 +10°C° 0 mm 2 m/s 752 mmHg 69%
    07:00 +13°C° 0 mm 2 m/s 752 mmHg 63%
    08:00 +15°C° 0 mm 2 m/s 752 mmHg 58%
    09:00 +17°C° 0 mm 2 m/s 753 mmHg 52%
    10:00 +18°C° 0 mm 2 m/s 752 mmHg 48%
    11:00 +20°C° 0 mm 3 m/s 752 mmHg 43%
    12:00 +21°C° 0 mm 3 m/s 752 mmHg 39%
    13:00 +22°C° 0 mm 3 m/s 752 mmHg 37%
    14:00 +22°C° 0 mm 3 m/s 752 mmHg 35%
    15:00 +24°C° 0 mm 2 m/s 752 mmHg 34%
    16:00 +23°C° 0 mm 2 m/s 751 mmHg 36%
    17:00 +23°C° 0 mm 2 m/s 751 mmHg 37%
    18:00 +23°C° 0 mm 2 m/s 751 mmHg 39%
    19:00 +21°C° 0 mm 1 m/s 751 mmHg 43%
    20:00 +20°C° 0 mm 1 m/s 751 mmHg 46%
    21:00 +18°C° 0 mm 1 m/s 751 mmHg 50%
    22:00 +18°C° 0 mm 1 m/s 751 mmHg 52%
    23:00 +16°C° 0 mm 1 m/s 751 mmHg 54%

    26 Avril, Vendredi

    Heure Température Précipitation Vent Pression Humidité
    00:00 +15°C° 0 mm 1 m/s 750 mmHg 57%
    01:00 +15°C° 0 mm 1 m/s 750 mmHg 59%
    02:00 +14°C° 0 mm 1 m/s 750 mmHg 61%
    03:00 +14°C° 0 mm 1 m/s 750 mmHg 63%
    04:00 +14°C° 0 mm 1 m/s 750 mmHg 64%
    05:00 +13°C° 0 mm 1 m/s 750 mmHg 64%
    06:00 +13°C° 0 mm 1 m/s 750 mmHg 65%
    07:00 +15°C° 0 mm 1 m/s 750 mmHg 59%
    08:00 +18°C° 0 mm 1 m/s 751 mmHg 53%
    09:00 +19°C° 0 mm 1 m/s 751 mmHg 47%
    10:00 +20°C° 0 mm 2 m/s 751 mmHg 43%
    11:00 +21°C° 0 mm 2 m/s 750 mmHg 39%
    12:00 +23°C° 0 mm 2 m/s 750 mmHg 35%
    13:00 +23°C° 0 mm 2 m/s 750 mmHg 36%
    14:00 +23°C° 0 mm 2 m/s 750 mmHg 36%
    15:00 +23°C° 0 mm 1 m/s 750 mmHg 36%
    16:00 +23°C° 0 mm 1 m/s 749 mmHg 39%
    17:00 +22°C° 0 mm 1 m/s 749 mmHg 42%
    18:00 +22°C° 0 mm 1 m/s 749 mmHg 45%
    19:00 +21°C° 0 mm 1 m/s 749 mmHg 48%
    20:00 +20°C° 0 mm 1 m/s 749 mmHg 50%
    21:00 +19°C° 0 mm 1 m/s 749 mmHg 53%
    22:00 +18°C° 0.4 mm 1 m/s 749 mmHg 57%
    23:00 +16°C° 0.4 mm 1 m/s 748 mmHg 61%

    27 Avril, Samedi

    Heure Température Précipitation Vent Pression Humidité
    00:00 +15°C° 0.4 mm 1 m/s 748 mmHg 65%
    01:00 +15°C° 0.9 mm 1 m/s 748 mmHg 69%
    02:00 +14°C° 0.9 mm 1 m/s 748 mmHg 73%
    03:00 +14°C° 0.9 mm 1 m/s 748 mmHg 77%
    04:00 +14°C° 0.3 mm 1 m/s 748 mmHg 78%
    05:00 +14°C° 0.3 mm 1 m/s 748 mmHg 79%
    06:00 +12°C° 0.3 mm 0 m/s 748 mmHg 80%
    07:00 +15°C° 0 mm 1 m/s 748 mmHg 75%
    08:00 +16°C° 0 mm 1 m/s 748 mmHg 69%
    09:00 +18°C° 0 mm 2 m/s 748 mmHg 64%
    10:00 +19°C° 0 mm 2 m/s 747 mmHg 58%
    11:00 +20°C° 0 mm 2 m/s 747 mmHg 52%
    12:00 +21°C° 0 mm 2 m/s 747 mmHg 45%
    13:00 +21°C° 0 mm 3 m/s 747 mmHg 46%
    14:00 +21°C° 0 mm 3 m/s 746 mmHg 47%
    15:00 +21°C° 0 mm 3 m/s 746 mmHg 48%
    16:00 +21°C° 0 mm 3 m/s 746 mmHg 49%
    17:00 +21°C° 0 mm 3 m/s 746 mmHg 51%
    18:00 +20°C° 0 mm 2 m/s 746 mmHg 53%
    19:00 +19°C° 0 mm 2 m/s 746 mmHg 56%
    20:00 +18°C° 0 mm 2 m/s 746 mmHg 59%
    21:00 +16°C° 0 mm 2 m/s 746 mmHg 62%
    22:00 +16°C° 0 mm 2 m/s 745 mmHg 63%
    23:00 +14°C° 0 mm 3 m/s 745 mmHg 64%
    Voir plus